Weather History for KCPC - May, 2014

Change the Weather History Date:

Thursday, May 8, 2014

  Actual Average (KLBT) Record (KLBT)
Temperature  
Mean Temperature 75 °F 68 °F  
Max Temperature 90 °F 80 °F 91 °F (2014)
Min Temperature 60 °F 55 °F 48 °F (2013)
Degree Days  
Heating Degree Days 0 2  
Month to date heating degree days 18  
Since 1 July heating degree days 2747  
Cooling Degree Days 10 4  
Month to date cooling degree days 29  
Year to date cooling degree days 97  
Growing Degree Days 25 (Base 50)    
Moisture  
Dew Point 61 °F    
Average Humidity 61    
Maximum Humidity 88    
Minimum Humidity 32    
Precipitation  
Precipitation 0.00 in 0.08 in 0.13 in (2013)
Month to date precipitation 0.55  
Year to date precipitation 12.57  
Sea Level Pressure  
Sea Level Pressure 30.15 in    
Wind  
Wind Speed 3 mph (SW)    
Max Wind Speed 14 mph    
Max Gust Speed 17 mph    
Visibility 10 miles    
Events      
T = Trace of Precipitation, MM = Missing Value Source: NWS Daily Summary

Daily Weather History Graph

Daily Weather History Graph

Search for Another Location

Airport or City:

Trip Planner

Search our weather history database for the weather conditions in past years. The results will help you decide how hot, cold, wet, or windy it might be!

Date:

Astronomy

May. 08, 2014 Rise Set
Actual Time 6:18 AM EDT 8:04 PM EDT
Civil Twilight 5:51 AM EDT 8:31 PM EDT
Nautical Twilight 5:18 AM EDT 9:04 PM EDT
Astronomical Twilight 4:43 AM EDT 9:39 PM EDT
Moon 2:19 PM EDT (5/8) 2:32 AM EDT (5/8)
Length of Visible Light 14h 40m
Length of Day
13h 46m
Waxing Gibbous, 64% of the Moon is Illuminated
May 8
Waxing Gibbous
May 14
Full
May 21
Last Quarter
May 28
New
Jun 5
First Quarter

Hourly Weather History & Observations

Time (EDT) Temp. Heat Index Dew Point Humidity Pressure Visibility Wind Dir Wind Speed Gust Speed Precip Events Conditions
12:15 AM 69.6 °F - 59.9 °F 71% 30.12 in 10.0 mi Calm Calm - N/A   Clear
12:55 AM 68.0 °F - 59.9 °F 75% 30.12 in 10.0 mi SSW 3.5 mph - N/A   Clear
1:15 AM 68.9 °F - 59.2 °F 71% 30.12 in 10.0 mi SW 3.5 mph - N/A   Clear
1:55 AM 67.6 °F - 58.1 °F 71% 30.11 in 10.0 mi Calm Calm - N/A   Clear
2:15 AM 66.4 °F - 58.1 °F 75% 30.11 in 10.0 mi Calm Calm - N/A   Clear
2:35 AM 65.5 °F - 58.3 °F 77% 30.11 in 10.0 mi Calm Calm - N/A   Clear
2:55 AM 63.0 °F - 58.1 °F 84% 30.11 in 10.0 mi Calm Calm - N/A   Clear
3:15 AM 63.3 °F - 58.1 °F 83% 30.11 in 10.0 mi Calm Calm - N/A   Clear
3:55 AM 66.2 °F - 56.7 °F 71% 30.12 in 10.0 mi SW 3.5 mph - N/A   Clear
4:15 AM 64.0 °F - 56.7 °F 77% 30.12 in 10.0 mi Calm Calm - N/A   Clear
4:35 AM 61.5 °F - 57.0 °F 85% 30.13 in 10.0 mi Calm Calm - N/A   Clear
4:55 AM 61.0 °F - 56.8 °F 86% 30.13 in 10.0 mi Calm Calm - N/A   Clear
5:15 AM 61.0 °F - 56.8 °F 86% 30.14 in 10.0 mi Calm Calm - N/A   Clear
5:35 AM 60.3 °F - 56.8 °F 88% 30.15 in 10.0 mi Calm Calm - N/A   Clear
5:55 AM 61.0 °F - 56.7 °F 86% 30.15 in 10.0 mi Calm Calm - N/A   Clear
6:15 AM 60.8 °F - 56.1 °F 85% 30.16 in 10.0 mi Calm Calm - N/A   Clear
6:35 AM 61.7 °F - 55.8 °F 81% 30.17 in 10.0 mi Calm Calm - N/A   Clear
6:55 AM 62.6 °F - 55.9 °F 79% 30.18 in 10.0 mi Calm Calm - N/A   Clear
7:15 AM 65.7 °F - 56.8 °F 73% 30.19 in 10.0 mi Calm Calm - N/A   Clear
7:35 AM 67.1 °F - 57.6 °F 71% 30.20 in 10.0 mi Calm Calm - N/A   Clear
7:55 AM 68.9 °F - 59.2 °F 71% 30.20 in 10.0 mi WSW 3.5 mph - N/A   Clear
8:15 AM 70.3 °F - 60.8 °F 72% 30.20 in 10.0 mi WSW 4.6 mph - N/A   Clear
8:35 AM 72.0 °F - 62.1 °F 71% 30.21 in 10.0 mi WSW 4.6 mph - N/A   Clear
8:55 AM 73.9 °F - 63.5 °F 70% 30.21 in 10.0 mi WSW 5.8 mph - N/A   Clear
9:15 AM 75.4 °F - 63.9 °F 67% 30.22 in 10.0 mi WSW 5.8 mph - N/A   Clear
9:35 AM 77.4 °F - 64.4 °F 64% 30.22 in 10.0 mi West 3.5 mph - N/A   Clear
9:55 AM 78.1 °F - 64.0 °F 62% 30.22 in 10.0 mi SW 5.8 mph - N/A   Clear
10:15 AM 79.3 °F - 63.5 °F 58% 30.22 in 10.0 mi WSW 4.6 mph - N/A   Clear
10:35 AM 80.1 °F 81.6 °F 63.5 °F 57% 30.22 in 10.0 mi WSW 4.6 mph - N/A   Clear
10:55 AM 81.1 °F 82.5 °F 63.3 °F 55% 30.21 in 10.0 mi West 6.9 mph - N/A   Clear
11:15 AM 82.8 °F 83.8 °F 63.1 °F 51% 30.21 in 10.0 mi SW 8.1 mph - N/A   Clear
11:35 AM 83.8 °F 84.9 °F 63.3 °F 50% 30.21 in 10.0 mi West 5.8 mph - N/A   Clear
11:55 AM 85.1 °F 86.4 °F 64.0 °F 49% 30.21 in 10.0 mi SW 6.9 mph - N/A   Clear
12:15 PM 86.2 °F 87.3 °F 63.5 °F 47% 30.20 in 10.0 mi WSW 5.8 mph - N/A   Clear
12:35 PM 86.5 °F 87.0 °F 62.1 °F 44% 30.19 in 10.0 mi WSW 5.8 mph - N/A   Clear
12:55 PM 87.8 °F 87.4 °F 60.3 °F 39% 30.19 in 10.0 mi WSW 8.1 mph - N/A   Clear
1:15 PM 89.2 °F 88.2 °F 57.9 °F 35% 30.19 in 10.0 mi SW 6.9 mph - N/A   Clear
1:35 PM 89.4 °F 87.7 °F 55.8 °F 32% 30.17 in 10.0 mi WSW 6.9 mph 17.3 mph N/A   Clear
1:55 PM 89.1 °F 88.0 °F 58.3 °F 35% 30.17 in 10.0 mi West 6.9 mph - N/A   Clear
2:15 PM 89.1 °F 87.7 °F 57.0 °F 34% 30.16 in 10.0 mi WSW 8.1 mph - N/A   Clear
2:35 PM 89.6 °F 88.9 °F 59.5 °F 36% 30.16 in 10.0 mi WSW 4.6 mph - N/A   Scattered Clouds
2:55 PM 90.3 °F 89.6 °F 59.5 °F 35% 30.15 in 10.0 mi SW 11.5 mph - N/A   Scattered Clouds
3:15 PM 90.3 °F 89.9 °F 59.7 °F 36% 30.14 in 10.0 mi SSW 13.8 mph - N/A   Scattered Clouds
3:35 PM 88.2 °F 87.3 °F 58.8 °F 37% 30.13 in 10.0 mi West 4.6 mph - N/A   Scattered Clouds
3:55 PM 90.5 °F 89.8 °F 59.2 °F 35% 30.13 in 10.0 mi SW 12.7 mph 17.3 mph N/A   Scattered Clouds
4:15 PM 90.1 °F 89.3 °F 59.2 °F 35% 30.12 in 10.0 mi SSW 9.2 mph - N/A   Scattered Clouds
4:35 PM 90.5 °F 89.8 °F 59.4 °F 35% 30.11 in 10.0 mi SW 8.1 mph - N/A   Scattered Clouds
4:55 PM 90.0 °F 89.1 °F 58.8 °F 35% 30.11 in 10.0 mi SW 10.4 mph - N/A   Scattered Clouds
5:15 PM 89.2 °F 88.7 °F 59.5 °F 37% 30.11 in 10.0 mi WSW 5.8 mph - N/A   Scattered Clouds
5:35 PM 89.8 °F 88.6 °F 57.7 °F 34% 30.11 in 10.0 mi SW 8.1 mph - N/A   Scattered Clouds
5:55 PM 88.9 °F 88.0 °F 58.6 °F 36% 30.11 in 10.0 mi SW 4.6 mph - N/A   Scattered Clouds
6:15 PM 86.2 °F 87.9 °F 64.9 °F 49% 30.11 in 10.0 mi South 10.4 mph - N/A   Scattered Clouds
6:35 PM 84.9 °F 86.8 °F 65.3 °F 52% 30.11 in 10.0 mi South 9.2 mph - N/A   Clear
6:55 PM 84.2 °F 86.1 °F 65.5 °F 53% 30.10 in 10.0 mi SSE 6.9 mph - N/A   Clear
7:15 PM 83.3 °F 85.1 °F 65.1 °F 54% 30.11 in 10.0 mi South 6.9 mph - N/A   Clear
7:35 PM 81.7 °F 83.5 °F 65.1 °F 57% 30.11 in 10.0 mi South 5.8 mph - N/A   Clear
7:55 PM 80.4 °F 82.3 °F 65.3 °F 60% 30.12 in 10.0 mi SSE 4.6 mph - N/A   Clear
8:15 PM 79.0 °F - 65.3 °F 63% 30.13 in 10.0 mi South 5.8 mph - N/A   Clear
8:35 PM 77.9 °F - 65.3 °F 65% 30.13 in 10.0 mi South 4.6 mph - N/A   Clear
8:55 PM 76.8 °F - 65.5 °F 68% 30.13 in 10.0 mi South 5.8 mph - N/A   Clear
9:15 PM 75.7 °F - 65.8 °F 71% 30.14 in 10.0 mi South 6.9 mph - N/A   Clear
9:35 PM 75.2 °F - 66.2 °F 73% 30.14 in 10.0 mi South 5.8 mph - N/A   Clear
9:55 PM 74.7 °F - 66.2 °F 75% 30.15 in 10.0 mi South 3.5 mph - N/A   Clear
10:15 PM 73.8 °F - 66.2 °F 77% 30.15 in 10.0 mi South 4.6 mph - N/A   Clear
10:35 PM 72.7 °F - 66.2 °F 80% 30.16 in 10.0 mi South 3.5 mph - N/A   Clear
11:15 PM 72.3 °F - 65.3 °F 78% 30.16 in 10.0 mi SSW 4.6 mph - N/A   Clear
11:35 PM 72.0 °F - 64.9 °F 78% 30.16 in 10.0 mi SSW 3.5 mph - N/A   Clear
11:55 PM 71.4 °F - 64.6 °F 79% 30.16 in 10.0 mi SSW 4.6 mph - N/A   Clear